[[{"header":{"parameterUnit":"m.s-1","parameterCategory":1,"la1":30.2991,"la2":30.254,"lo1":-89.0895,"lo2":-89.0444,"dy":0.0017,"dx":0.0017,"nx":28,"ny":28,"refTime":"2023-09-11T21:00:00:Z","depth":0,"parameterNumber":2,"parameterNumberName":"U-component_of_WINDS"},"data":[0,0,0,0,0,0,0,0,0,0,0,0,0,0,0,0,0,0,0,0,0,0,0,0,0,0,0,0,0,0,0,0,0,0,0,0,0,0,0,0,0,0,0,0,0,0,0,0,0,0,0,0,0,0,0,0,0,0,-1.1367,-1.1368,0,-1.1458,-1.1459,-1.146,-1.1476,-1.1475,-1.1475,-1.1474,-1.1568,-1.1571,-1.1574,0,0,0,0,0,0,0,0,0,0,0,0,0,-1.121,-1.1213,-1.1367,-1.1368,-1.137,-1.1458,-1.1459,-1.146,-1.1476,-1.1475,-1.1475,-1.1474,-1.1567,-1.1571,-1.1575,0,0,0,0,0,0,0,0,0,0,0,0,0,-1.1287,-1.1213,-1.1367,-1.1388,-1.1391,-1.1458,-1.1459,-1.1461,-1.1477,-1.1475,-1.1474,-1.1473,-1.1566,-1.1571,-1.1575,-1.1628,0,0,-1.159,-1.1592,0,0,0,0,0,0,0,0,-1.1283,-1.1293,-1.1384,-1.1387,-1.139,-1.1455,-1.1438,-1.1517,-1.1477,-1.1444,-1.1474,-1.1473,-1.1531,-1.1539,-1.1559,-1.1632,-1.1636,-1.159,-1.1593,-1.1595,-1.1597,0,0,0,0,0,0,0,-1.1277,-1.1289,-1.1403,-1.1385,-1.1389,-1.1394,-1.1403,-1.1453,-1.1493,-1.1447,-1.1448,-1.1459,-1.1533,-1.1554,-1.1561,-1.1638,-1.159,-1.1595,-1.1598,-1.1599,-1.1761,-1.1762,0,0,0,0,0,0,-1.1268,-1.1285,-1.14,-1.1406,-1.1332,-1.1397,-1.1408,-1.1435,-1.1493,-1.15,-1.146,-1.1459,-1.1546,-1.1555,-1.1564,-1.1631,-1.1595,-1.16,-1.1603,-1.1759,-1.1761,-1.1762,0,0,0,0,0,0,-1.1265,-1.1278,-1.1397,-1.1346,-1.1361,-1.1401,-1.1431,-1.1438,-1.1458,-1.1502,-1.1509,-1.1474,-1.1546,-1.1557,-1.1612,-1.1634,-1.1602,-1.1606,-1.1757,-1.176,-1.1762,-1.1763,0,0,0,0,0,0,-1.126,-1.1277,-1.1297,-1.1346,-1.1364,-1.1443,-1.1433,-1.144,-1.1467,-1.1467,-1.1517,-1.1525,-1.1546,-1.1605,-1.1617,-1.164,-1.161,-1.1756,-1.1758,-1.1761,-1.1761,-1.1765,-1.1768,0,0,0,0,0,-1.1254,-1.1293,-1.1298,-1.1312,-1.1389,-1.1444,-1.1454,-1.1477,-1.1468,-1.1489,-1.1517,-1.1523,-1.1629,-1.161,-1.1624,-1.1649,-1.1754,-1.1758,-1.1761,-1.1759,-1.1764,-1.1768,0,0,0,0,0,0,-1.1246,-1.13,-1.1305,-1.1362,-1.1398,-1.1446,-1.1473,-1.1481,-1.1521,-1.1519,-1.1547,-1.1558,-1.1612,-1.1636,-1.1613,-1.1703,-1.1691,-1.1697,-1.1686,-1.169,-1.1694,-1.1687,-1.1614,0,0,0,0,0,-1.125,-1.1289,-1.1335,-1.138,-1.1398,-1.1432,-1.1457,-1.1472,-1.1511,-1.1526,-1.1558,-1.1596,-1.1639,-1.1666,-1.1707,-1.1764,-1.1776,-1.1788,-1.1792,-1.1794,-1.1799,-1.1833,-1.1839,-1.1773,-1.1773,-1.1772,0,0,-1.126,-1.1295,-1.1318,-1.1379,-1.1409,-1.145,-1.1445,-1.1488,-1.1519,-1.1533,-1.1587,-1.1612,-1.1656,-1.1712,-1.1739,-1.1734,-1.182,-1.1798,-1.18,-1.1804,-1.1837,-1.1843,-1.1848,-1.1775,-1.1774,-1.1774,0,0,-1.13,-1.1329,-1.1371,-1.1401,-1.1446,-1.1469,-1.1479,-1.1526,-1.1543,-1.1598,-1.1609,-1.1646,-1.1718,-1.175,-1.1775,-1.1827,-1.1834,-1.184,-1.1857,-1.189,-1.1895,-1.19,-1.1919,-1.1926,-1.1844,-1.1844,-1.1844,0,-1.1306,-1.1367,-1.1391,-1.1434,-1.1461,-1.1475,-1.1518,-1.1546,-1.1603,-1.1622,-1.1615,-1.1706,-1.1737,-1.1802,-1.1814,-1.1834,-1.1847,-1.1834,-1.1892,-1.1897,-1.1902,-1.1921,-1.1928,-1.1845,-1.1845,-1.1845,-1.1845,0,-1.1374,-1.1417,-1.1445,-1.1499,-1.1529,-1.1572,-1.1602,-1.163,-1.1643,-1.1666,-1.1722,-1.1759,-1.1809,-1.1825,-1.1838,-1.1892,-1.1888,-1.1886,-1.1875,-1.1908,-1.1927,-1.1934,-1.1845,-1.1845,-1.1845,-1.1845,0,0,-1.1411,-1.1477,-1.1488,-1.1513,-1.1564,-1.1598,-1.1641,-1.1689,-1.1713,-1.1752,-1.179,-1.1851,-1.185,-1.1879,-1.1895,-1.1923,-1.1963,-1.1919,-1.192,-1.1926,-1.2027,-1.2028,-1.2036,-1.1968,-1.1969,-1.1971,-1.2023,0,-1.1456,-1.1534,-1.1557,-1.1623,-1.1663,-1.1677,-1.1715,-1.1751,-1.1775,-1.1813,-1.1839,-1.1882,-1.1877,-1.1895,-1.1923,-1.1952,-1.1984,-1.1949,-1.2004,-1.2006,-1.1993,-1.2045,-1.2046,-1.2094,-1.203,-1.2032,-1.2033,0,-1.152,-1.156,-1.163,-1.1677,-1.1695,-1.1728,-1.1775,-1.181,-1.1852,-1.1867,-1.19,-1.1914,-1.1961,-1.1946,-1.2012,-1.1987,-1.2012,-1.2029,-1.2032,-1.2038,-1.2022,-1.2054,-1.211,-1.2117,-1.2044,-1.2043,-1.2042,0,-1.1541,-1.1612,-1.1663,-1.1684,-1.174,-1.1764,-1.1788,-1.1829,-1.1856,-1.1897,-1.1916,-1.1961,-1.1987,-1.2022,-1.2049,-1.2036,-1.2112,-1.21,-1.2127,-1.2126,-1.2143,-1.2142,-1.2204,-1.2157,-1.2157,-1.2157,-1.2157,0,-1.159,-1.1632,-1.1673,-1.1705,-1.1753,-1.1779,-1.1826,-1.1851,-1.1887,-1.1925,-1.194,-1.1975,-1.2007,-1.2046,-1.2067,-1.2119,-1.213,-1.2144,-1.215,-1.2143,-1.2142,-1.216,-1.2158,-1.2159,-1.2158,-1.2158,-1.2158,0,-1.1621,-1.165,-1.1707,-1.1755,-1.1769,-1.1802,-1.1844,-1.1876,-1.19,-1.1947,-1.1959,-1.1997,-1.2045,-1.2074,-1.2134,-1.2148,-1.2205,-1.2209,-1.2191,-1.2194,-1.2219,-1.2217,-1.2297,-1.2309,-1.2253,-1.2253,-1.2254,0,-1.1651,-1.1684,-1.1736,-1.1762,-1.1787,-1.1828,-1.1857,-1.1884,-1.1913,-1.1964,-1.1989,-1.2038,-1.2078,-1.2152,-1.2186,-1.2232,-1.2238,-1.2262,-1.2245,-1.2238,-1.2239,-1.2237,-1.2241,-1.2265,-1.2266,-1.2266,-1.2266,0,-1.1702,-1.1714,-1.1755,-1.18,-1.1834,-1.1871,-1.1908,-1.1929,-1.1963,-1.1995,-1.2043,-1.2074,-1.2136,-1.2184,-1.2233,-1.2259,-1.2269,-1.2272,-1.2281,-1.2275,-1.2264,-1.2271,-1.22,-1.227,-1.227,-1.2269,-1.2269,-1.2269,-1.1734,-1.1764,-1.1806,-1.185,-1.1881,-1.1916,-1.1948,-1.1976,-1.2017,-1.2069,-1.2083,-1.2133,-1.2175,-1.2242,-1.2269,-1.231,-1.2307,-1.2319,-1.2323,-1.2326,-1.2327,-1.2257,-1.2319,-1.2319,-1.2319,-1.2319,-1.2319,0,-1.1786,-1.1813,-1.1854,-1.1906,-1.1941,-1.1947,-1.1988,-1.2018,-1.2062,-1.21,-1.2139,-1.2195,-1.2242,-1.2279,-1.2327,-1.2353,-1.2359,-1.2365,-1.2364,-1.237,-1.2326,-1.2314,-1.2359,-1.2359,-1.2359,-1.2359,-1.2359,-1.2359,-1.1817,-1.1869,-1.1886,-1.1954,-1.1982,-1.2031,-1.2055,-1.2087,-1.2118,-1.2179,-1.2218,-1.2242,-1.228,-1.2331,-1.2375,-1.2385,-1.2402,-1.2407,-1.2418,-1.2377,-1.2373,-1.2368,-1.2357,-1.2411,-1.2411,-1.2458,-1.2459,-1.2459]},{"header":{"parameterUnit":"m.s-1","parameterCategory":1,"la1":30.2991,"la2":30.254,"lo1":-89.0895,"lo2":-89.0444,"dy":0.0017,"dx":0.0017,"nx":28,"ny":28,"refTime":"2023-09-11T21:00:00:Z","depth":0,"parameterNumber":3,"parameterNumberName":"V-component_of_WINDS"},"data":[0,0,0,0,0,0,0,0,0,0,0,0,0,0,0,0,0,0,0,0,0,0,0,0,0,0,0,0,0,0,0,0,0,0,0,0,0,0,0,0,0,0,0,0,0,0,0,0,0,0,0,0,0,0,0,0,0,0,2.9848,2.9848,0,2.9907,2.9907,2.9908,2.9873,2.9871,2.987,2.9868,2.9924,2.9927,2.993,0,0,0,0,0,0,0,0,0,0,0,0,0,2.9699,2.9702,2.9848,2.9848,2.9849,2.9907,2.9908,2.9908,2.9873,2.9871,2.9869,2.9867,2.9923,2.9927,2.9931,0,0,0,0,0,0,0,0,0,0,0,0,0,2.9761,2.9703,2.9847,2.9839,2.9838,2.9907,2.9908,2.9909,2.9874,2.9871,2.9869,2.9866,2.9922,2.9926,2.9931,3.001,0,0,2.9945,2.9947,0,0,0,0,0,0,0,0,2.9758,2.9766,2.9839,2.9839,2.9839,2.988,2.9876,2.9942,2.9874,2.986,2.9868,2.9865,2.9911,2.9917,2.9933,3.0013,3.0015,2.9945,2.9948,2.995,2.9952,0,0,0,0,0,0,0,2.9753,2.9764,2.9871,2.984,2.984,2.983,2.9836,2.9888,2.9899,2.9861,2.9859,2.9866,2.9911,2.9929,2.9934,3.0016,2.9945,2.9949,2.9952,2.9954,3.016,3.0162,0,0,0,0,0,0,2.975,2.976,2.9869,2.9873,2.9792,2.9835,2.9841,2.9869,2.9898,2.99,2.9869,2.9865,2.9922,2.9929,2.9936,3.0028,2.995,2.9955,2.9957,3.0157,3.016,3.0163,0,0,0,0,0,0,2.9747,2.976,2.9867,2.9816,2.9829,2.984,2.9872,2.9872,2.989,2.9904,2.9905,2.9885,2.992,2.9929,2.9991,3.003,2.9957,2.9961,3.0154,3.0158,3.0162,3.0215,0,0,0,0,0,0,2.9743,2.9759,2.9791,2.9817,2.9832,2.9923,2.9874,2.9875,2.9898,2.9894,2.992,2.9922,2.9919,2.9985,2.9996,3.0035,2.9964,3.0151,3.0156,3.0161,3.0209,3.022,3.0229,0,0,0,0,0,2.9738,2.9803,2.9793,2.9806,2.9871,2.9925,2.9933,2.993,2.9902,2.9932,2.9941,2.9921,3.0024,2.9991,3.0004,3.0044,3.0148,3.0154,3.016,3.0205,3.0218,3.0229,0,0,0,0,0,0,2.978,2.9806,2.9795,2.9871,2.9896,2.9919,2.9958,2.9944,2.9977,2.9971,2.9964,2.997,3.0035,3.0046,3.0009,3.0121,3.0081,3.009,3.0111,3.0123,3.0133,3.0128,2.9968,0,0,0,0,0,2.9799,2.9842,2.9862,2.9926,2.994,2.9947,2.997,2.9965,2.9991,3.0001,3.0014,3.0038,3.0075,3.01,3.0136,3.0211,3.0215,3.0245,3.0255,3.0263,3.027,3.0308,3.0321,3.0183,3.0183,3.0183,0,0,2.9836,2.9856,2.9884,2.9935,2.9954,2.9997,2.9956,3.0004,3.0034,3.0008,3.0067,3.0077,3.0103,3.0172,3.0203,3.0183,3.0309,3.0271,3.0277,3.028,3.0316,3.0329,3.034,3.0188,3.0187,3.0186,0,0,2.9927,2.9947,3.0003,3.0023,3.0052,3.0056,3.0069,3.0094,3.01,3.016,3.014,3.0176,3.0242,3.026,3.0278,3.0375,3.0356,3.0386,3.0437,3.0474,3.0485,3.0494,3.0526,3.0538,3.0394,3.0394,3.0394,0,2.997,3.0035,3.0032,3.0081,3.0103,3.0082,3.0136,3.0155,3.0195,3.0209,3.0188,3.0268,3.0284,3.0356,3.0379,3.0395,3.0408,3.0383,3.0484,3.0493,3.0502,3.0533,3.0545,3.0397,3.0397,3.0396,3.0396,0,3.0085,3.0131,3.0172,3.0211,3.0238,3.0289,3.0292,3.0319,3.0312,3.0318,3.0377,3.0396,3.0434,3.045,3.0444,3.052,3.0507,3.0485,3.0444,3.0519,3.0547,3.0559,3.0402,3.0401,3.04,3.0399,0,0,3.0204,3.0241,3.0255,3.0272,3.0302,3.0336,3.0386,3.0424,3.0446,3.0474,3.0513,3.0569,3.0548,3.0568,3.0563,3.0596,3.0668,3.0569,3.057,3.0585,3.0751,3.0767,3.0781,3.0657,3.066,3.0661,3.0748,0,3.0295,3.0383,3.0381,3.0462,3.0502,3.0482,3.0524,3.0546,3.0553,3.0586,3.0593,3.0631,3.0602,3.0614,3.0646,3.0653,3.0701,3.0647,3.0692,3.0693,3.0684,3.0796,3.0813,3.0894,3.076,3.0762,3.0763,0,3.0413,3.0445,3.053,3.0553,3.057,3.0608,3.0642,3.0675,3.0699,3.0701,3.0723,3.0713,3.076,3.072,3.0784,3.0747,3.0765,3.0771,3.0774,3.0777,3.0732,3.08,3.092,3.0932,3.0781,3.078,3.0778,0,3.0489,3.0553,3.0611,3.0626,3.0655,3.0682,3.0695,3.0716,3.0739,3.0768,3.0782,3.0816,3.0834,3.0859,3.0857,3.0828,3.0921,3.0881,3.0922,3.0922,3.0942,3.094,3.1065,3.0957,3.0956,3.0956,3.0956,0,3.059,3.0642,3.0645,3.0681,3.0738,3.0735,3.0791,3.08,3.0819,3.0855,3.084,3.0873,3.0869,3.0902,3.0901,3.0953,3.0961,3.0963,3.0961,3.0963,3.0963,3.0974,3.0967,3.0959,3.0959,3.0958,3.0958,0,3.0683,3.0688,3.075,3.0772,3.0779,3.082,3.0837,3.087,3.0875,3.092,3.093,3.0937,3.0975,3.0976,3.102,3.1018,3.1081,3.1075,3.1074,3.1072,3.1112,3.1107,3.1247,3.1264,3.1146,3.1147,3.1148,0,3.0747,3.0786,3.0812,3.0836,3.085,3.0888,3.0911,3.0908,3.0932,3.0961,3.099,3.1027,3.1056,3.1117,3.1125,3.1158,3.115,3.1197,3.1155,3.1155,3.1148,3.1145,3.1148,3.1204,3.1206,3.1207,3.1208,0,3.0858,3.0858,3.0892,3.0927,3.0954,3.0981,3.1006,3.1026,3.1025,3.1053,3.1092,3.1115,3.1159,3.1194,3.1226,3.1237,3.1222,3.1221,3.1232,3.1233,3.123,3.1231,3.1094,3.1218,3.1217,3.1216,3.1215,3.1215,3.0937,3.097,3.0993,3.1031,3.105,3.1073,3.1104,3.1113,3.1146,3.1182,3.1178,3.1221,3.1242,3.1282,3.1296,3.1328,3.1312,3.1328,3.1332,3.1336,3.1339,3.1227,3.1334,3.1334,3.1334,3.1333,3.1333,0,3.1045,3.1059,3.1094,3.1129,3.1159,3.1143,3.1169,3.1194,3.1233,3.1254,3.1283,3.1326,3.1361,3.1371,3.1404,3.1427,3.1421,3.1436,3.1433,3.1435,3.1353,3.1339,3.144,3.144,3.144,3.144,3.144,3.144,3.1105,3.116,3.1163,3.1226,3.1239,3.1282,3.1298,3.1318,3.1335,3.1385,3.1413,3.142,3.1436,3.147,3.15,3.1502,3.1514,3.1531,3.153,3.1452,3.1442,3.1431,3.1418,3.1534,3.1534,3.161,3.161,3.1611]}]]